Stations météo

Publicité
Achnagart, Grande-Bretagne (99191): Température de l'air & dewpoint: 13.12.2018 01:00:00 - 19.12.2018 01:00:00 (GMT)Achnagart, Grande-Bretagne (99191): Quantités de précipitations: 13.12.2018 01:00:00 - 19.12.2018 01:00:00 (GMT)
Date & Time tt [°C] td [°C] rr [mm]
19.12.2018 01:00:00 6,9 4,7 0,2
19.12.2018 00:00:00 7,4 4,5 0,4
18.12.2018 23:00:00 8,5 3,8 0,0
18.12.2018 22:00:00 8,3 4,3 0,0
18.12.2018 21:00:00 7,6 5,2 0,4
18.12.2018 20:00:00 8,1 4,8 0,2
18.12.2018 19:00:00 8,4 4,7 0,0
18.12.2018 18:00:00 8,3 5,5 0,0
18.12.2018 17:00:00 8,6 5,9 0,8
18.12.2018 16:00:00 8,3 5,4 1,8
18.12.2018 15:00:00 8,5 6,0 2,0
18.12.2018 14:00:00 9,6 6,4 1,0
18.12.2018 13:00:00 9,3 6,0 1,4
18.12.2018 12:00:00 10,6 5,2 0,2
18.12.2018 11:00:00 9,7 6,0 3,8
18.12.2018 10:00:00 11,2 8,1 4,8
18.12.2018 09:00:00 11,0 7,6 4,4
18.12.2018 08:00:00 10,7 7,9 4,0
18.12.2018 07:00:00 10,8 8,1 3,6
18.12.2018 06:00:00 12,0 7,7 1,2
18.12.2018 05:00:00 13,2 7,9 0,2
18.12.2018 04:00:00 13,1 8,5 0,4
18.12.2018 03:00:00 12,1 8,7 1,8
18.12.2018 02:00:00 12,7 8,4 0,6
18.12.2018 01:00:00 12,0 8,6 1,8
18.12.2018 00:00:00 11,5 8,2 1,4
17.12.2018 23:00:00 11,5 7,9 1,4
17.12.2018 22:00:00 10,9 7,4 0,4
17.12.2018 21:00:00 10,4 6,8 0,6
17.12.2018 20:00:00 9,4 6,7 1,0
17.12.2018 19:00:00 8,4 6,3 0,8
17.12.2018 18:00:00 9,1 5,1 0,0
17.12.2018 17:00:00 8,3 4,2 0,0
17.12.2018 16:00:00 8,6 2,8 0,0
17.12.2018 15:00:00 8,8 2,3 0,0
17.12.2018 14:00:00 8,4 2,3 0,0
17.12.2018 13:00:00 8,0 1,9 0,0
17.12.2018 12:00:00 7,9 1,9 0,0
17.12.2018 11:00:00 7,6 2,2 0,0
17.12.2018 10:00:00 7,4 2,5 0,0
17.12.2018 09:00:00 6,8 2,8 0,0
17.12.2018 08:00:00 6,3 3,6 0,0
17.12.2018 07:00:00 5,7 4,2 0,0
17.12.2018 06:00:00 5,6 4,3 0,4
17.12.2018 05:00:00 5,6 4,1 0,8
17.12.2018 04:00:00 6,4 3,7 0,0
17.12.2018 03:00:00 6,3 3,7 0,2
17.12.2018 02:00:00 7,1 3,0 0,0
17.12.2018 01:00:00 7,9 2,4 0,0
17.12.2018 00:00:00 7,4 2,6 0,0
16.12.2018 23:00:00 7,6 2,3 0,0
16.12.2018 22:00:00 7,7 2,3 0,2
16.12.2018 21:00:00 7,1 2,2 0,0
16.12.2018 20:00:00 7,6 2,0 0,0
16.12.2018 19:00:00 6,3 1,6 0,0
16.12.2018 18:00:00 6,0 1,7 0,0
16.12.2018 17:00:00 6,0 1,8 0,0
16.12.2018 16:00:00 6,0 2,6 0,0
16.12.2018 15:00:00 5,1 3,2 0,2
16.12.2018 14:00:00 5,2 3,2 1,4
16.12.2018 13:00:00 5,2 3,2 2,0
16.12.2018 12:00:00 7,0 2,7 0,6
16.12.2018 11:00:00 5,8 3,4 0,6
16.12.2018 10:00:00 6,4 3,2 0,4
16.12.2018 09:00:00 5,8 2,8 0,0
16.12.2018 08:00:00 6,1 3,0 0,0
16.12.2018 07:00:00 5,0 2,8 1,0
16.12.2018 06:00:00 4,4 2,8 5,6
16.12.2018 05:00:00 6,0 4,0 5,8
16.12.2018 04:00:00 5,7 3,1 2,6
16.12.2018 03:00:00 5,0 1,3 0,2
16.12.2018 02:00:00 4,1 0,8 0,0
16.12.2018 01:00:00 3,9 0,8 0,0
16.12.2018 00:00:00 4,3 0,6 0,0
15.12.2018 23:00:00 3,9 1,3 0,4
15.12.2018 22:00:00 4,1 1,3 1,0
15.12.2018 21:00:00 3,1 1,5 4,4
15.12.2018 20:00:00 3,4 1,7 4,2
15.12.2018 19:00:00 3,8 1,8 5,6
15.12.2018 18:00:00 4,9 1,8 0,4
15.12.2018 17:00:00 5,0 1,7 0,4
15.12.2018 16:00:00 4,6 1,8 7,0
15.12.2018 15:00:00 4,1 1,2 1,6
15.12.2018 14:00:00 4,0 0,1 1,0
15.12.2018 13:00:00 4,8 -0,9 0,0
15.12.2018 12:00:00 5,3 -1,9 0,0
15.12.2018 11:00:00 5,7 -1,5 0,0
15.12.2018 10:00:00 4,9 -0,9 0,0
15.12.2018 09:00:00 4,4 -0,8 0,0
15.12.2018 08:00:00 5,0 -1,0 0,0
15.12.2018 07:00:00 4,9 -0,9 0,0
15.12.2018 06:00:00 4,1 0,7 0,8
15.12.2018 05:00:00 5,9 -1,2 0,0
15.12.2018 04:00:00 5,5 -1,9 0,0
15.12.2018 03:00:00 5,8 -1,9 0,0
15.12.2018 02:00:00 5,1 -1,9 0,0
15.12.2018 01:00:00 5,0 -2,2 0,0
15.12.2018 00:00:00 5,2 -1,7 0,0
14.12.2018 23:00:00 5,3 -2,4 0,0
14.12.2018 22:00:00 4,9 -3,5 0,0
14.12.2018 21:00:00 4,7 -4,0 0,0
14.12.2018 20:00:00 4,5 -4,6 0,0
14.12.2018 19:00:00 4,3 -4,5 0,0
14.12.2018 18:00:00 4,2 -4,3 0,0
14.12.2018 17:00:00 4,4 -4,8 0,0
14.12.2018 16:00:00 4,6 -5,3 0,0
14.12.2018 15:00:00 5,3 -6,0 0,0
14.12.2018 14:00:00 5,1 -6,1 0,0
14.12.2018 13:00:00 5,1 -6,4 0,0
14.12.2018 12:00:00 5,3 -6,5 0,0
14.12.2018 11:00:00 4,7 -5,8 0,0
14.12.2018 10:00:00 4,6 -5,8 0,0
14.12.2018 09:00:00 4,8 -5,3 0,0
14.12.2018 08:00:00 4,3 -4,1 0,0
14.12.2018 07:00:00 4,7 -4,4 0,0
14.12.2018 06:00:00 5,1 -4,4 0,0
14.12.2018 05:00:00 5,3 -4,6 0,0
14.12.2018 04:00:00 5,6 -5,2 0,0
14.12.2018 03:00:00 5,5 -4,9 0,0
14.12.2018 02:00:00 5,8 -5,1 0,0
14.12.2018 01:00:00 6,1 -5,5 0,0
14.12.2018 00:00:00 6,4 -5,2 0,0
13.12.2018 23:00:00 6,2 -4,5 0,0
13.12.2018 22:00:00 6,1 -4,1 0,0
13.12.2018 21:00:00 6,4 -4,3 0,0
13.12.2018 20:00:00 6,1 -4,4 0,0
13.12.2018 19:00:00 6,1 -3,9 0,0
13.12.2018 18:00:00 6,1 -4,0 0,0
13.12.2018 17:00:00 6,3 -4,5 0,0
13.12.2018 16:00:00 6,3 -4,4 0,0
13.12.2018 15:00:00 6,2 -4,0 0,0
13.12.2018 14:00:00 6,2 -3,8 0,0
13.12.2018 13:00:00 6,4 -3,8 0,0
13.12.2018 12:00:00 6,3 -3,8 0,0
13.12.2018 11:00:00 6,4 -3,8 0,0
13.12.2018 10:00:00 5,7 -3,0 0,0
13.12.2018 09:00:00 6,1 -3,9 0,0
13.12.2018 08:00:00 5,8 -4,1 0,0
13.12.2018 07:00:00 6,0 -4,8 0,0
13.12.2018 06:00:00 5,5 -4,5 0,0
13.12.2018 05:00:00 6,1 -4,6 0,0
13.12.2018 04:00:00 5,8 -3,4 0,0
13.12.2018 03:00:00 6,2 -3,0 0,0
13.12.2018 02:00:00 6,8 -2,0 0,0
13.12.2018 01:00:00 6,7 -0,4 0,0

tt = Température de l'air
td = dewpoint
rr = Quantités de précipitations

stations d'obs. à proximité